Location: Aultman
(40.9284°N, 81.4173°W)
Time: 08:35:13
(UTC+00:00)

NOAA 11 - Pass Details

Date: 24 January 2021
Orbit: 832 x 850 km, 98.4° (Epoch: 02 March)

Event Time Altitude Azimuth Distance (km) Brightness Sun altitude
Rises 23:04:24 0° 166° (SSE) 3,400 7.4 -6.2°
Reaches altitude 10° 23:06:46 10° 167° (SSE) 2,469 6.7 -6.7°
Maximum altitude 23:12:16 86° 257° (WSW) 858 4.3 -7.6°
Drops below altitude 10° 23:17:48 10° 346° (NNW) 2,482 6.6 -8.6°
Sets 23:20:10 0° 347° (NNW) 3,420 7.3 -9.1°
